When you browse on this site, cookies collect data to enhance your experience and personalize the content and advertising you see.
Visit our Privacy Policy to learn more. By continuing to use the site, you agree to this use of cookies and data.
  • En España
  • Lista de países
  • Para 7 días
  • Temperatura del agua
  • Mapa Satelital
  • El tiempo en el mapa
  • Informadores
  • user-avatar
    Iniciar sesión

    Tiempo cada hora Cervinia

    Hoy, 25 Junio, Martes

    Tiempo Temperatura Precipitaciones Viento Presión Humedad
    00:00 +21°C° 0 mm 1 mps 677 mmHg 92%
    01:00 +21°C° 0 mm 1 mps 677 mmHg 91%
    02:00 +20°C° 0 mm 1 mps 676 mmHg 90%
    03:00 +20°C° 0 mm 1 mps 676 mmHg 90%
    04:00 +21°C° 0 mm 1 mps 677 mmHg 86%
    05:00 +22°C° 0 mm 1 mps 677 mmHg 82%
    06:00 +24°C° 0 mm 1 mps 678 mmHg 78%
    07:00 +26°C° 0 mm 1 mps 678 mmHg 69%
    08:00 +28°C° 0 mm 1 mps 679 mmHg 59%
    09:00 +30°C° 0 mm 1 mps 679 mmHg 50%
    10:00 +31°C° 0 mm 1 mps 679 mmHg 46%
    11:00 +32°C° 0 mm 1 mps 679 mmHg 42%
    12:00 +34°C° 0 mm 2 mps 680 mmHg 38%
    13:00 +32°C° 0.1 mm 2 mps 680 mmHg 39%
    14:00 +32°C° 0.1 mm 2 mps 679 mmHg 41%
    15:00 +32°C° 0.1 mm 2 mps 679 mmHg 42%
    16:00 +31°C° 0.2 mm 1 mps 679 mmHg 51%
    17:00 +30°C° 0.2 mm 1 mps 679 mmHg 61%
    18:00 +28°C° 0.2 mm 1 mps 679 mmHg 70%
    19:00 +26°C° 0 mm 1 mps 679 mmHg 74%
    20:00 +24°C° 0 mm 1 mps 679 mmHg 79%
    21:00 +22°C° 0 mm 1 mps 679 mmHg 83%
    22:00 +22°C° 0 mm 1 mps 679 mmHg 82%
    23:00 +21°C° 0 mm 1 mps 679 mmHg 81%

    Mañana, 26 Junio, Miércoles

    Tiempo Temperatura Precipitaciones Viento Presión Humedad
    00:00 +21°C° 0 mm 1 mps 679 mmHg 80%
    01:00 +21°C° 0 mm 1 mps 679 mmHg 79%
    02:00 +20°C° 0 mm 1 mps 679 mmHg 78%
    03:00 +20°C° 0 mm 1 mps 678 mmHg 76%
    04:00 +22°C° 0 mm 1 mps 679 mmHg 70%
    05:00 +24°C° 0 mm 1 mps 680 mmHg 64%
    06:00 +24°C° 0 mm 0 mps 680 mmHg 58%
    07:00 +28°C° 0 mm 1 mps 681 mmHg 51%
    08:00 +30°C° 0 mm 1 mps 681 mmHg 43%
    09:00 +32°C° 0 mm 1 mps 682 mmHg 36%
    10:00 +33°C° 0 mm 1 mps 682 mmHg 34%
    11:00 +34°C° 0 mm 1 mps 682 mmHg 33%
    12:00 +36°C° 0 mm 2 mps 682 mmHg 31%
    13:00 +35°C° 0.2 mm 2 mps 681 mmHg 33%
    14:00 +35°C° 0.2 mm 2 mps 681 mmHg 36%
    15:00 +34°C° 0.2 mm 3 mps 681 mmHg 38%
    16:00 +32°C° 0.1 mm 2 mps 680 mmHg 45%
    17:00 +30°C° 0.1 mm 2 mps 680 mmHg 52%
    18:00 +29°C° 0.1 mm 1 mps 680 mmHg 59%
    19:00 +27°C° 0.1 mm 1 mps 680 mmHg 61%
    20:00 +25°C° 0.1 mm 1 mps 680 mmHg 63%
    21:00 +23°C° 0.1 mm 1 mps 680 mmHg 65%
    22:00 +23°C° 0 mm 1 mps 679 mmHg 64%
    23:00 +23°C° 0 mm 1 mps 679 mmHg 62%

    Pasado mañana, 27 Junio, Jueves

    Tiempo Temperatura Precipitaciones Viento Presión Humedad
    00:00 +23°C° 0 mm 1 mps 679 mmHg 61%
    01:00 +22°C° 0 mm 1 mps 679 mmHg 57%
    02:00 +22°C° 0 mm 1 mps 679 mmHg 54%
    03:00 +22°C° 0 mm 1 mps 678 mmHg 51%
    04:00 +24°C° 0 mm 1 mps 679 mmHg 48%
    05:00 +26°C° 0 mm 1 mps 679 mmHg 46%
    06:00 +28°C° 0 mm 1 mps 680 mmHg 44%
    07:00 +30°C° 0 mm 1 mps 680 mmHg 37%
    08:00 +31°C° 0 mm 1 mps 680 mmHg 30%
    09:00 +34°C° 0 mm 2 mps 680 mmHg 23%
    10:00 +35°C° 0 mm 2 mps 680 mmHg 22%
    11:00 +35°C° 0 mm 2 mps 680 mmHg 21%
    12:00 +36°C° 0 mm 2 mps 680 mmHg 20%
    13:00 +36°C° 0 mm 2 mps 680 mmHg 21%
    14:00 +36°C° 0 mm 3 mps 679 mmHg 23%
    15:00 +35°C° 0 mm 3 mps 679 mmHg 25%
    16:00 +34°C° 0 mm 2 mps 678 mmHg 32%
    17:00 +32°C° 0 mm 2 mps 678 mmHg 40%
    18:00 +30°C° 0 mm 2 mps 677 mmHg 48%
    19:00 +28°C° 0 mm 2 mps 677 mmHg 49%
    20:00 +26°C° 0 mm 2 mps 677 mmHg 50%
    21:00 +24°C° 0 mm 2 mps 677 mmHg 52%
    22:00 +24°C° 0 mm 2 mps 676 mmHg 50%
    23:00 +23°C° 0 mm 2 mps 676 mmHg 48%

    28 Junio, Viernes

    Tiempo Temperatura Precipitaciones Viento Presión Humedad
    00:00 +23°C° 0 mm 2 mps 676 mmHg 46%
    01:00 +23°C° 0 mm 2 mps 676 mmHg 45%
    02:00 +21°C° 0 mm 2 mps 676 mmHg 43%
    03:00 +21°C° 0 mm 2 mps 675 mmHg 42%
    04:00 +24°C° 0 mm 2 mps 676 mmHg 42%
    05:00 +25°C° 0 mm 2 mps 676 mmHg 42%
    06:00 +27°C° 0 mm 2 mps 676 mmHg 42%
    07:00 +29°C° 0 mm 2 mps 677 mmHg 36%
    08:00 +31°C° 0 mm 2 mps 677 mmHg 30%
    09:00 +34°C° 0 mm 2 mps 677 mmHg 24%
    10:00 +34°C° 0 mm 2 mps 677 mmHg 23%
    11:00 +35°C° 0 mm 3 mps 677 mmHg 22%
    12:00 +35°C° 0 mm 3 mps 677 mmHg 21%
    13:00 +35°C° 0 mm 3 mps 677 mmHg 23%
    14:00 +35°C° 0 mm 3 mps 677 mmHg 25%
    15:00 +34°C° 0 mm 3 mps 676 mmHg 27%
    16:00 +33°C° 0.1 mm 3 mps 676 mmHg 36%
    17:00 +30°C° 0.1 mm 2 mps 676 mmHg 45%
    18:00 +29°C° 0.1 mm 2 mps 676 mmHg 54%
    19:00 +26°C° 0.1 mm 2 mps 675 mmHg 58%
    20:00 +24°C° 0.1 mm 1 mps 675 mmHg 62%
    21:00 +22°C° 0.1 mm 1 mps 675 mmHg 66%
    22:00 +21°C° 0 mm 1 mps 675 mmHg 66%
    23:00 +21°C° 0 mm 1 mps 675 mmHg 66%

    29 Junio, Sábado

    Tiempo Temperatura Precipitaciones Viento Presión Humedad
    00:00 +18°C° 0 mm 0 mps 674 mmHg 66%
    01:00 +18°C° 0 mm 0 mps 674 mmHg 69%
    02:00 +17°C° 0 mm 0 mps 674 mmHg 71%
    03:00 +19°C° 0 mm 1 mps 674 mmHg 74%
    04:00 +20°C° 0 mm 1 mps 674 mmHg 72%
    05:00 +22°C° 0 mm 1 mps 675 mmHg 71%
    06:00 +23°C° 0 mm 1 mps 675 mmHg 69%
    07:00 +24°C° 0 mm 1 mps 676 mmHg 64%
    08:00 +26°C° 0 mm 1 mps 676 mmHg 60%
    09:00 +27°C° 0 mm 1 mps 676 mmHg 56%
    10:00 +28°C° 0 mm 2 mps 676 mmHg 52%
    11:00 +29°C° 0 mm 2 mps 676 mmHg 49%
    12:00 +30°C° 0 mm 2 mps 676 mmHg 46%
    13:00 +30°C° 0.1 mm 2 mps 676 mmHg 49%
    14:00 +30°C° 0.1 mm 2 mps 676 mmHg 51%
    15:00 +29°C° 0.1 mm 2 mps 676 mmHg 53%
    16:00 +28°C° 0.2 mm 2 mps 676 mmHg 60%
    17:00 +27°C° 0.2 mm 2 mps 675 mmHg 67%
    18:00 +26°C° 0.2 mm 1 mps 675 mmHg 73%
    19:00 +24°C° 0 mm 1 mps 675 mmHg 79%
    20:00 +22°C° 0 mm 1 mps 675 mmHg 84%
    21:00 +18°C° 0 mm 0 mps 675 mmHg 90%
    22:00 +18°C° 0 mm 0 mps 675 mmHg 89%
    23:00 +18°C° 0 mm 0 mps 675 mmHg 87%

    30 Junio, Domingo

    Tiempo Temperatura Precipitaciones Viento Presión Humedad
    00:00 +17°C° 0 mm 0 mps 675 mmHg 86%
    01:00 +17°C° 0 mm 0 mps 675 mmHg 83%
    02:00 +16°C° 0 mm 0 mps 674 mmHg 80%
    03:00 +16°C° 0 mm 0 mps 674 mmHg 77%
    04:00 +20°C° 0 mm 1 mps 675 mmHg 71%
    05:00 +22°C° 0 mm 1 mps 676 mmHg 64%
    06:00 +24°C° 0 mm 1 mps 676 mmHg 58%
    07:00 +26°C° 0 mm 1 mps 677 mmHg 51%
    08:00 +28°C° 0 mm 1 mps 677 mmHg 44%
    09:00 +30°C° 0 mm 1 mps 678 mmHg 37%
    10:00 +31°C° 0 mm 1 mps 678 mmHg 36%
    11:00 +31°C° 0 mm 2 mps 677 mmHg 35%
    12:00 +32°C° 0 mm 2 mps 677 mmHg 34%
    13:00 +32°C° 0.1 mm 2 mps 677 mmHg 36%
    14:00 +32°C° 0.1 mm 2 mps 677 mmHg 38%
    15:00 +32°C° 0.1 mm 2 mps 677 mmHg 40%
    16:00 +31°C° 0.2 mm 2 mps 676 mmHg 48%
    17:00 +29°C° 0.2 mm 2 mps 676 mmHg 56%
    18:00 +28°C° 0.2 mm 1 mps 676 mmHg 65%
    19:00 +26°C° 0.2 mm 1 mps 676 mmHg 68%
    20:00 +24°C° 0.2 mm 1 mps 676 mmHg 72%
    21:00 +20°C° 0.2 mm 0 mps 675 mmHg 76%
    22:00 +20°C° 0 mm 0 mps 675 mmHg 75%
    23:00 +19°C° 0 mm 0 mps 675 mmHg 74%
    Mostrar más